Weather History for Murray, KY

Change the Weather History Date:

Sunday, September 30, 2012

  Actual Average (KPAH) Record (KPAH)
Temperature  
Mean Temperature 62 °F 64 °F  
Max Temperature 71 °F 77 °F 91 °F (1953)
Min Temperature 53 °F 52 °F 34 °F (1949)
Degree Days  
Heating Degree Days 3 4  
Month to date heating degree days 37  
Since 1 July heating degree days 39  
Cooling Degree Days 0 3  
Month to date cooling degree days 187  
Year to date cooling degree days 1500  
Growing Degree Days 12 (Base 50)    
Moisture  
Dew Point 56 °F    
Average Humidity 82    
Maximum Humidity 100    
Minimum Humidity 53    
Precipitation  
Precipitation 0.00 in 0.14 in 1.02 in (1939)
Month to date precipitation 3.75  
Year to date precipitation 36.23  
Snow  
Snow 0.00 in 0.00 in 0.00 in (2002)
Month to date snowfall 0.0  
Since 1 July snowfall 0.0  
Since 1 September snowfall 0.0  
Snow Depth -    
Sea Level Pressure  
Sea Level Pressure 29.90 in    
Wind  
Wind Speed 2 mph (NE)    
Max Wind Speed 7 mph    
Max Gust Speed -    
Visibility 8 miles    
Events      
T = Trace of Precipitation, MM = Missing Value Source: NWS Daily Summary

Daily Weather History Graph

Daily Weather History Graph

Search for Another Location

Airport:

Trip Planner

Search our weather history database for the weather conditions in past years. The results will help you decide how hot, cold, wet, or windy it might be!

Date:

Astronomy

Sep. 30, 2012 Rise Set
Actual Time 6:48 AM CDT 6:37 PM CDT
Civil Twilight 6:22 AM CDT 7:03 PM CDT
Nautical Twilight 5:52 AM CDT 7:33 PM CDT
Astronomical Twilight 5:22 AM CDT 8:03 PM CDT
Moon 6:44 PM CDT (9/30) 7:16 AM CDT (9/30)
Length of Visible Light 12h 40m
Length of Day
11h 49m
Full, 100% of the Moon is Illuminated
Sep 30
Full
Oct 8
Last Quarter
Oct 15
New
Oct 21
First Quarter
Oct 29
Full

Hourly Weather History & Observations

Time (CDT) Temp. Dew Point Humidity Pressure Visibility Wind Dir Wind Speed Gust Speed Precip Events Conditions
12:15 AM 59.0 °F 55.4 °F 88% 29.98 in 6.0 mi NE 6.9 mph - N/A   Clear
12:55 AM 57.2 °F 55.4 °F 94% 29.97 in 9.0 mi NE 5.8 mph - N/A   Clear
1:15 AM 57.2 °F 55.4 °F 94% 29.98 in 10.0 mi NE 3.5 mph - N/A   Clear
1:35 AM 57.2 °F 55.4 °F 94% 29.98 in 10.0 mi Calm Calm - N/A   Clear
1:55 AM 55.4 °F 55.4 °F 100% 29.97 in 9.0 mi Calm Calm - N/A   Clear
2:15 AM 55.4 °F 55.4 °F 100% 29.97 in 10.0 mi Calm Calm - N/A   Clear
2:35 AM 55.4 °F 55.4 °F 100% 29.97 in 9.0 mi Calm Calm - N/A   Clear
2:55 AM 55.4 °F 55.4 °F 100% 29.96 in 10.0 mi Calm Calm - N/A   Clear
3:15 AM 55.4 °F 55.4 °F 100% 29.96 in 8.0 mi Calm Calm - N/A   Clear
3:35 AM 55.4 °F 55.4 °F 100% 29.95 in 6.0 mi Calm Calm - N/A   Clear
3:55 AM 55.4 °F 55.4 °F 100% 29.95 in 7.0 mi Calm Calm - N/A   Clear
4:15 AM 55.4 °F 53.6 °F 94% 29.94 in 5.0 mi Calm Calm - N/A   Clear
4:35 AM 55.4 °F 53.6 °F 94% 29.94 in 7.0 mi Calm Calm - N/A   Clear
4:55 AM 55.4 °F 55.4 °F 100% 29.94 in 5.0 mi Calm Calm - N/A   Clear
5:15 AM 55.4 °F 55.4 °F 100% 29.94 in 5.0 mi Calm Calm - N/A   Clear
5:35 AM 55.4 °F 53.6 °F 94% 29.93 in 5.0 mi Calm Calm - N/A   Clear
5:55 AM 55.4 °F 53.6 °F 94% 29.93 in 6.0 mi NE 3.5 mph - N/A   Clear
6:15 AM 53.6 °F 53.6 °F 100% 29.93 in 4.0 mi NE 3.5 mph - N/A   Clear
6:35 AM 53.6 °F 53.6 °F 100% 29.93 in 3.0 mi NE 3.5 mph - N/A   Clear
6:55 AM 55.4 °F 53.6 °F 94% 29.93 in 3.0 mi NE 3.5 mph - N/A   Clear
7:15 AM 55.4 °F 53.6 °F 94% 29.94 in 2.5 mi Calm Calm - N/A   Clear
7:35 AM 55.4 °F 55.4 °F 100% 29.94 in 2.0 mi Calm Calm - N/A   Clear
7:55 AM 57.2 °F 57.2 °F 100% 29.95 in 3.0 mi Calm Calm - N/A   Clear
8:15 AM 57.2 °F 57.2 °F 100% 29.95 in 4.0 mi Calm Calm - N/A   Clear
8:35 AM 59.0 °F 57.2 °F 94% 29.95 in 4.0 mi Calm Calm - N/A   Clear
8:55 AM 59.0 °F 57.2 °F 94% 29.95 in 5.0 mi Calm Calm - N/A   Clear
9:15 AM 60.8 °F 57.2 °F 88% 29.95 in 5.0 mi Calm Calm - N/A   Clear
9:35 AM 62.6 °F 59.0 °F 88% 29.95 in 6.0 mi Calm Calm - N/A   Clear
9:55 AM 64.4 °F 59.0 °F 83% 29.95 in 9.0 mi Calm Calm - N/A   Clear
10:15 AM 64.4 °F 57.2 °F 77% 29.95 in 7.0 mi East 3.5 mph - N/A   Clear
10:35 AM 66.2 °F 57.2 °F 73% 29.94 in 10.0 mi ESE 3.5 mph - N/A   Clear
10:55 AM 66.2 °F 57.2 °F 73% 29.94 in 10.0 mi SE 3.5 mph - N/A   Clear
11:15 AM 68.0 °F 57.2 °F 68% 29.93 in 10.0 mi Calm Calm - N/A   Clear
11:35 AM 68.0 °F 55.4 °F 64% 29.92 in 10.0 mi Calm Calm - N/A   Clear
11:55 AM 69.8 °F 55.4 °F 60% 29.91 in 10.0 mi Calm Calm - N/A   Clear
12:15 PM 69.8 °F 55.4 °F 60% 29.91 in 10.0 mi NNE 3.5 mph - N/A   Clear
12:35 PM 69.8 °F 55.4 °F 60% 29.90 in 10.0 mi ENE 4.6 mph - N/A   Clear
12:55 PM 69.8 °F 55.4 °F 60% 29.89 in 10.0 mi North 3.5 mph - N/A   Clear
1:15 PM 69.8 °F 55.4 °F 60% 29.88 in 10.0 mi Calm Calm - N/A   Clear
1:35 PM 71.6 °F 53.6 °F 53% 29.88 in 10.0 mi Calm Calm - N/A   Clear
1:55 PM 71.6 °F 53.6 °F 53% 29.87 in 10.0 mi North 3.5 mph - N/A   Clear
2:15 PM 71.6 °F 53.6 °F 53% 29.87 in 10.0 mi Calm Calm - N/A   Clear
2:35 PM 71.6 °F 53.6 °F 53% 29.87 in 10.0 mi NNE 3.5 mph - N/A   Clear
2:55 PM 71.6 °F 55.4 °F 57% 29.86 in 10.0 mi North 3.5 mph - N/A   Clear
3:15 PM 71.6 °F 55.4 °F 57% 29.85 in 10.0 mi North 5.8 mph - N/A   Clear
3:35 PM 71.6 °F 55.4 °F 57% 29.85 in 10.0 mi North 4.6 mph - N/A   Clear
3:55 PM 69.8 °F 55.4 °F 60% 29.84 in 10.0 mi North 6.9 mph - N/A   Clear
4:15 PM 69.8 °F 55.4 °F 60% 29.84 in 10.0 mi North 5.8 mph - N/A   Clear
4:55 PM 68.0 °F 57.2 °F 68% 29.83 in 10.0 mi ENE 3.5 mph - N/A   Clear
5:15 PM 68.0 °F 57.2 °F 68% 29.83 in 10.0 mi NE 4.6 mph - N/A   Clear
5:35 PM 68.0 °F 57.2 °F 68% 29.83 in 10.0 mi NE 5.8 mph - N/A   Clear
5:55 PM 66.2 °F 57.2 °F 73% 29.83 in 10.0 mi NE 4.6 mph - N/A   Clear
6:15 PM 66.2 °F 59.0 °F 78% 29.83 in 10.0 mi NE 3.5 mph - N/A   Clear
6:35 PM 64.4 °F 59.0 °F 83% 29.83 in 9.0 mi Calm Calm - N/A   Clear
6:55 PM 64.4 °F 59.0 °F 83% 29.83 in 10.0 mi NE 3.5 mph - N/A   Clear
7:15 PM 64.4 °F 59.0 °F 83% 29.83 in 10.0 mi NNE 3.5 mph - N/A   Clear
7:35 PM 64.4 °F 59.0 °F 83% 29.83 in 10.0 mi North 4.6 mph - N/A   Clear
7:55 PM 64.4 °F 59.0 °F 83% 29.84 in 10.0 mi NNE 4.6 mph - N/A   Clear
8:15 PM 64.4 °F 57.2 °F 77% 29.84 in 10.0 mi NNE 4.6 mph - N/A   Clear
8:35 PM 64.4 °F 57.2 °F 77% 29.84 in 10.0 mi Calm Calm - N/A   Clear
8:55 PM 62.6 °F 59.0 °F 88% 29.84 in 10.0 mi Calm Calm - N/A   Clear
9:15 PM 62.6 °F 59.0 °F 88% 29.84 in 10.0 mi Calm Calm - N/A   Clear
9:35 PM 62.6 °F 59.0 °F 88% 29.84 in 10.0 mi East 3.5 mph - N/A   Clear
9:55 PM 62.6 °F 59.0 °F 88% 29.84 in 10.0 mi ENE 3.5 mph - N/A   Clear
10:15 PM 62.6 °F 57.2 °F 82% 29.84 in 10.0 mi ENE 3.5 mph - N/A   Clear
10:35 PM 62.6 °F 59.0 °F 88% 29.83 in 10.0 mi Calm Calm - N/A   Clear
10:55 PM 62.6 °F 59.0 °F 88% 29.82 in 10.0 mi Calm Calm - N/A   Clear
11:15 PM 60.8 °F 59.0 °F 94% 29.81 in 10.0 mi ENE 4.6 mph - N/A   Partly Cloudy
11:55 PM 60.8 °F 59.0 °F 94% 29.81 in 10.0 mi Calm Calm - N/A   Clear